Lapse_Rate
7.8 7.8 8.3 8.2 8.6 8.3 8.4 8.5 8.8 8.8 8.9 8.6 8.4 8.2 8.1 7.8 7.9 8.0 7.6 6.9 7.0 7.7 6.9 7.0 7.6 6.8 6.2 5.7 5.8 5.4 4.5 5.6 6.2 7.1 7.7 7.8 6.9 4.9 4.9 5.5 5.4 5.3 6.8
8.2 7.8 7.6 7.8 8.1 8.8 8.6 8.8 9.0 8.8 8.8 8.6 8.3 8.0 7.9 8.1 7.9 7.9 7.7 7.4 7.2 6.7 7.3 7.5 7.8 7.7 6.1 5.6 5.2 4.4 4.4 4.4 5.3 5.6 6.8 7.0 6.7 5.8 4.7 5.0 4.9 5.9 3.6
8.2 7.4 7.3 7.7 7.9 8.0 8.4 8.7 8.8 8.8 8.3 8.3 8.2 7.9 7.7 7.9 7.7 7.4 7.4 7.4 7.4 7.1 7.6 7.6 7.7 7.0 6.1 5.8 4.8 4.2 4.6 4.8 4.1 5.1 5.9 6.5 6.5 7.0 5.5 5.5 5.1 4.8 3.5
7.6 7.6 7.0 7.0 7.3 7.9 8.4 8.5 8.7 8.2 8.0 8.0 7.8 7.7 7.7 8.0 7.8 7.4 7.8 7.4 6.5 7.4 7.6 7.1 7.4 7.1 6.5 5.7 4.9 4.2 4.4 4.5 4.2 4.7 5.3 5.2 6.0 6.6 5.6 5.5 5.8 4.8 4.9
6.5 7.2 7.1 7.2 7.6 7.8 8.3 8.4 8.3 8.1 8.4 8.3 7.8 7.9 7.9 8.3 9.1 7.5 7.6 7.2 6.9 6.9 7.1 7.0 7.3 7.5 6.6 5.8 4.9 4.2 4.3 4.7 4.9 4.6 5.6 5.3 5.6 6.7 7.2 6.2 5.6 5.4 5.2
6.0 6.5 7.2 7.6 7.6 7.7 8.1 8.2 7.9 8.1 8.3 7.9 8.0 8.1 7.8 8.8 6.4 5.5 5.7 7.0 7.0 6.6 6.8 6.8 6.7 6.5 6.6 6.0 5.2 5.2 5.1 5.4 5.3 5.2 5.7 5.6 5.3 5.4 6.5 6.7 5.4 6.0 6.0
6.0 6.4 7.0 7.5 7.4 7.7 8.0 7.9 8.0 8.4 8.0 7.7 7.6 7.8 7.5 7.4 4.9 4.4 4.8 5.7 6.3 6.4 6.6 6.6 6.1 6.3 5.7 6.0 6.2 6.0 5.7 6.3 5.8 5.7 5.8 6.0 5.7 3.6 5.3 6.5 5.6 5.5 6.8
6.5 6.5 6.8 7.1 7.6 7.7 7.7 7.6 7.9 7.8 7.5 7.2 7.2 7.2 7.2 7.9 4.0 2.9 3.6 5.4 5.7 5.7 6.6 6.4 6.0 6.2 6.4 6.2 6.6 6.1 6.1 6.4 7.0 7.5 6.9 6.6 6.5 6.3 4.5 6.1 6.4 5.5 5.6
6.9 6.3 6.9 7.1 7.5 7.7 7.6 7.4 7.6 7.5 7.0 6.8 7.3 7.0 7.1 7.0 3.6 2.0 2.0 5.5 6.9 6.6 7.2 6.3 6.1 6.0 6.0 4.5 4.8 5.1 4.5 5.6 6.9 5.8 5.8 5.5 5.2 4.9 5.0 4.9 5.7 5.9 6.3
6.5 6.6 6.8 7.4 7.7 7.7 7.2 7.5 7.3 7.4 7.0 7.0 7.8 7.5 7.9 7.0 1.2 1.4 3.3 2.6 4.1 6.2 7.1 6.7 3.9 3.9 2.4 1.6 3.1 4.1 4.8 5.4 4.7 5.8 6.3 5.1 3.2 2.4 2.6 3.3 3.6 6.2 6.1
7.6 7.5 7.2 7.6 7.4 7.5 7.2 6.7 5.7 5.7 5.6 5.7 6.9 6.8 7.2 6.9 5.4 2.5 2.0 3.8 5.4 6.7 6.6 7.2 7.6 2.6 0.5 1.0 1.1 4.2 4.3 4.1 5.1 5.4 5.7 5.2 5.8 4.5 2.9 3.0 3.6 5.7 5.9
7.3 7.6 7.5 7.1 7.0 7.0 7.2 6.4 5.7 5.5 5.5 5.8 6.9 6.3 6.5 5.9 4.3 2.9 2.3 2.3 4.5 6.2 7.1 8.1 7.3 0.4 0.4 1.3 2.3 2.0 2.7 3.7 4.6 5.6 5.8 5.8 3.6 5.5 4.5 5.4 4.9 5.4 5.6
8.3 8.0 7.7 8.1 7.5 7.7 7.0 6.1 6.5 5.2 6.0 7.2 6.0 6.5 6.3 6.2 4.4 3.2 2.6 3.1 3.5 4.3 7.1 6.0 3.3 2.1 3.1 2.9 1.7 2.1 2.9 4.0 4.4 5.2 5.7 5.7 5.2 3.1 4.4 5.8 5.8 5.9 5.1
7.2 8.0 8.3 7.3 7.2 7.5 6.8 7.4 4.5 6.5 6.0 6.2 5.9 7.4 7.3 5.5 3.7 4.3 5.1 6.2 6.1 6.3 4.3 5.3 5.8 4.7 3.3 3.2 2.7 2.7 2.9 3.5 5.0 5.0 5.0 5.8 5.6 3.8 2.4 3.0 5.7 5.3 5.4
8.2 8.6 7.9 7.9 7.4 7.1 1.2 1.7 5.3 0.0 1.0 5.8 5.1 6.1 6.0 6.7 3.1 -1.5 -1.3 2.3 3.2 2.6 -0.6 5.7 7.8 7.0 5.2 4.4 4.1 3.7 3.3 3.3 3.3 4.5 4.8 5.2 5.7 5.1 4.5 2.6 2.9 4.2 5.6
8.4 8.6 8.4 7.5 5.1 6.6 4.6 3.8 -4.0 -3.8 -4.5 -4.6 -3.4 0.5 2.8 -0.3 -1.5 -1.9 -2.2 -2.3 -2.1 -1.9 4.2 7.5 7.1 6.6 7.0 6.2 4.6 4.4 4.4 4.2 3.1 3.4 4.4 4.1 5.8 5.5 5.2 5.1 5.0 4.3 3.9
7.8 7.3 8.4 5.7 8.3 7.3 8.3 8.0 6.2 -0.3 -1.9 -1.9 -1.1 -0.1 0.6 -1.1 -0.6 -1.6 -1.5 -1.1 1.2 2.1 8.1 7.1 6.9 8.0 7.7 6.3 5.7 5.2 4.9 4.7 4.7 3.4 3.6 3.9 3.9 5.4 5.2 4.9 5.2 5.1 5.3
8.8 3.3 8.3 8.6 8.8 7.9 8.6 8.5 8.6 7.9 7.6 7.4 0.2 1.7 1.2 2.1 1.2 -0.2 -0.3 2.2 8.4 8.0 7.6 7.2 7.6 7.5 6.4 6.5 6.2 5.9 5.4 5.4 5.8 5.1 5.1 4.6 4.2 4.2 5.6 5.3 5.0 5.2 5.3
8.9 8.5 8.5 7.7 6.1 7.4 8.9 8.8 8.3 6.8 7.9 8.5 8.0 2.9 3.4 2.5 2.8 2.4 3.5 7.3 8.5 7.9 7.0 6.1 5.5 4.3 3.3 3.2 3.3 3.1 5.0 4.4 4.2 6.0 6.2 5.5 4.8 4.1 4.1 5.8 5.6 4.7 4.8
8.1 3.6 6.1 8.6 8.2 8.8 8.7 8.7 7.9 6.9 7.1 8.5 7.9 5.6 5.0 6.5 6.9 7.3 7.7 7.2 7.6 7.2 5.5 4.8 4.3 3.4 2.6 2.1 1.9 2.3 2.5 4.7 5.2 5.4 7.0 6.3 6.0 5.2 5.3 5.5 5.6 5.0 5.5
7.1 7.9 3.6 7.6 8.9 8.8 8.9 7.8 8.4 8.9 7.9 8.0 8.0 5.3 1.1 7.1 6.9 7.8 8.4 8.8 8.6 9.1 8.9 9.0 8.0 7.4 5.3 4.2 3.1 3.1 3.6 4.4 5.7 6.8 7.0 6.8 6.1 7.0 6.5 5.9 6.0 6.0 4.5
6.9 7.3 8.4 7.9 7.0 8.3 8.4 8.4 8.9 8.9 8.9 8.2 7.8 6.7 4.2 7.7 7.6 8.2 8.6 9.1 9.3 9.1 9.3 9.0 8.9 8.9 8.8 7.5 4.8 4.0 3.7 3.7 4.8 5.5 6.9 7.0 6.9 7.1 7.3 7.3 6.1 5.7 5.4
7.8 9.0 8.6 6.8 6.6 6.1 7.4 9.0 8.9 8.9 8.9 9.0 8.9 8.0 7.4 8.5 8.7 7.6 8.5 9.1 9.3 9.1 9.5 9.3 8.4 8.6 8.3 7.6 5.5 3.4 2.3 1.9 2.5 4.7 4.2 7.2 7.3 7.3 7.1 7.6 7.2 6.5 6.0
9.2 9.1 8.6 8.4 8.2 8.8 8.7 8.8 7.8 6.6 7.4 9.0 9.1 9.1 9.2 8.5 9.0 8.7 9.3 9.5 9.3 9.3 9.4 9.4 8.4 6.3 5.0 4.5 3.9 3.2 0.4 -1.1 0.7 2.0 3.9 7.6 7.0 6.8 7.7 7.2 7.3 7.5 7.1
9.1 9.0 9.1 9.1 8.6 8.8 8.7 8.7 9.0 9.0 9.1 9.1 9.1 9.2 9.3 9.3 9.3 9.4 9.5 9.5 9.5 9.4 9.5 9.4 9.4 7.3 4.5 3.4 2.4 1.4 -1.2 -2.6 -0.3 -1.2 2.4 6.0 7.4 6.3 7.7 7.8 7.7 7.6 7.5
9.2 9.1 9.2 9.1 9.1 9.0 9.0 8.9 9.0 9.0 9.1 9.1 9.2 9.2 9.3 9.3 9.4 9.4 9.5 9.5 9.6 9.3 9.6 9.5 9.3 8.9 6.4 3.3 0.9 -0.4 -0.3 -1.1 -0.8 -0.8 0.2 7.0 5.5 6.5 6.7 8.1 8.1 8.2 8.1
Wind_Speed
8 8 5 4 5 5 4 4 4 4 3 4 5 5 6 8 7 5 5 7 8 4 5 5 3 4 6 6 7 8 9 9 15 14 12 12 9 10 8 15 18 14 12
9 7 7 5 4 3 4 4 3 4 4 4 5 6 7 8 7 6 5 6 5 6 5 5 3 4 5 6 6 10 9 11 13 17 13 11 12 12 11 12 10 16 1
10 8 7 6 6 5 5 4 4 4 5 6 6 6 7 7 7 7 7 5 5 6 5 5 3 3 5 6 7 7 8 9 10 12 13 11 11 10 9 10 9 10 12
13 11 9 8 7 6 5 5 5 6 6 5 6 6 7 8 8 10 7 6 7 7 5 5 5 5 5 6 7 8 8 10 10 10 11 12 10 12 9 8 9 8 9
8 7 7 7 7 7 6 5 6 6 5 5 6 7 7 7 8 4 2 6 6 7 6 6 7 7 8 9 7 9 8 8 9 10 11 11 11 12 11 9 9 9 10
7 9 7 7 8 8 7 6 7 6 5 5 6 6 6 6 1 6 6 5 6 7 8 6 7 9 11 13 15 14 11 11 14 11 12 13 13 12 13 10 8 10 9
7 7 7 7 7 7 7 7 5 3 5 5 6 7 7 7 8 9 9 5 7 8 7 7 9 7 10 11 11 12 13 18 18 17 16 15 15 15 14 15 12 10 12
10 10 9 8 8 8 8 7 5 5 5 6 7 6 6 8 8 7 9 8 8 9 10 9 10 10 10 11 9 10 12 16 17 15 17 18 18 16 16 13 13 12 10
12 11 10 9 9 9 8 6 6 6 6 6 7 7 8 7 7 6 8 8 10 10 7 8 9 9 10 7 7 9 13 17 19 28 29 32 33 30 21 9 12 12 12
13 12 10 10 9 9 8 7 5 3 4 6 9 7 6 3 4 7 2 2 10 11 8 8 9 4 7 7 6 8 12 17 19 24 20 21 23 23 30 17 12 11 11
11 11 10 10 8 8 6 4 3 4 3 7 7 7 7 4 4 8 6 3 7 7 8 7 3 4 9 10 6 7 11 16 21 18 17 14 7 12 12 14 15 10 10
7 7 7 8 7 5 5 4 5 4 6 8 6 6 6 4 3 4 7 9 11 7 9 7 4 10 8 8 9 13 16 17 12 13 14 14 12 4 11 11 15 12 8
1 5 5 4 5 4 4 6 5 7 8 3 4 6 4 4 3 2 7 10 13 5 7 7 8 8 8 7 13 15 12 9 12 13 14 13 13 11 7 9 10 14 12
4 5 4 3 3 4 5 3 3 4 1 2 3 2 4 1 4 5 6 7 8 8 10 8 3 8 11 8 8 9 7 8 10 10 12 13 13 13 10 6 7 9 8
5 2 4 6 7 8 10 8 4 5 5 3 5 5 5 5 4 3 3 6 7 7 9 5 1 5 7 7 8 8 8 8 9 11 9 12 13 14 13 11 7 4 8
5 5 5 3 5 5 7 6 13 11 9 11 7 6 4 6 5 7 7 10 13 7 3 4 7 8 7 7 8 8 8 10 9 9 10 11 10 11 12 11 11 10 8
4 5 4 4 4 4 3 3 4 3 4 6 6 5 6 2 6 8 10 8 13 10 6 7 7 6 5 5 7 6 7 7 6 8 10 10 10 9 10 11 11 10 12
4 4 4 4 1 3 3 2 2 2 2 2 3 2 5 6 6 11 16 7 3 7 7 7 6 6 7 8 8 8 9 9 8 8 9 10 10 10 8 6 7 9 10
3 3 3 4 6 4 3 2 3 2 2 1 3 2 4 7 6 9 13 6 5 6 7 7 6 6 6 6 7 8 7 8 9 9 8 9 9 9 10 9 9 10 8
3 5 6 1 6 4 3 3 1 2 1 3 3 4 4 5 5 5 4 4 5 5 4 4 3 3 3 3 5 6 7 6 7 8 8 8 8 8 8 9 8 8 9
4 5 1 6 5 4 3 3 4 4 4 4 4 4 4 3 4 3 2 3 3 2 3 4 4 3 3 1 1 3 6 7 7 8 8 7 8 8 7 8 9 8 7
4 4 4 3 4 4 4 6 3 4 2 4 5 4 1 3 2 1 3 2 1 1 4 4 5 5 6 6 6 7 7 7 9 9 9 7 8 7 7 6 8 8 9
3 3 4 4 4 4 4 5 5 1 3 4 4 7 6 4 3 2 3 3 1 4 4 5 5 5 6 8 9 7 6 6 8 9 8 7 7 6 6 6 7 7 8
5 5 4 2 4 3 5 6 3 2 3 4 3 2 2 7 5 3 4 0 4 4 4 4 5 7 7 9 10 11 10 11 12 11 12 7 8 10 6 6 5 8 6
5 6 4 5 5 5 5 5 6 3 4 5 2 2 2 1 1 2 3 3 3 3 4 5 6 10 10 11 12 12 14 17 13 16 13 9 8 12 9 7 7 6 9
3 4 6 4 5 3 3 4 5 2 3 3 4 3 2 2 1 2 2 1 2 4 2 4 5 6 11 10 9 13 18 22 21 24 17 7 8 7 8 8 11 7 7
Wind_Direction
186 176 161 157 185 179 193 221 239 265 268 272 275 277 284 288 281 281 270 255 267 294 309 303 343 357 348 333 333 325 306 314 287 277 271 264 235 242 241 224 230 233 245
181 173 161 170 193 208 197 226 248 264 264 269 263 270 281 285 280 299 283 305 307 291 289 287 316 359 334 331 329 316 313 305 327 276 272 265 253 241 249 242 222 238 26
186 163 162 174 181 198 214 227 243 250 252 256 267 276 281 281 279 260 251 270 276 271 273 292 306 337 298 305 303 305 308 314 324 316 295 266 258 254 252 236 216 219 200
178 177 169 172 183 202 215 220 231 246 255 272 276 268 273 270 268 263 257 256 266 267 270 278 273 245 272 303 302 305 308 314 319 316 302 298 261 253 243 243 236 232 207
162 149 159 162 177 191 214 216 239 254 263 263 270 270 273 275 280 353 285 253 256 266 258 262 260 246 239 256 272 288 305 306 307 307 295 292 287 257 241 232 226 226 236
163 167 168 180 182 195 214 216 221 238 255 277 288 281 283 290 97 240 264 282 275 268 274 263 272 283 256 243 259 264 282 299 298 298 288 282 275 280 259 238 226 216 220
173 189 179 191 192 201 213 219 213 244 266 273 291 286 280 283 240 250 246 255 268 276 284 276 278 279 284 277 263 267 290 298 273 275 278 272 268 259 264 248 236 226 225
186 197 195 195 199 205 213 218 207 216 238 260 263 267 278 281 244 252 252 256 268 271 272 273 278 286 282 276 298 291 301 300 300 296 279 269 263 260 244 256 244 230 233
195 199 200 199 206 213 217 217 215 231 237 243 253 263 273 276 341 359 342 312 300 289 283 269 279 288 295 352 309 299 306 311 313 307 292 269 255 251 253 249 247 233 232
199 199 197 205 208 218 223 210 203 217 279 276 277 284 301 38 79 171 130 23 291 295 290 284 291 352 335 350 330 313 316 322 312 313 313 302 242 235 232 232 227 224 222
195 195 199 205 203 211 205 154 172 236 272 291 308 314 301 298 292 205 208 250 276 296 306 304 330 23 21 351 333 342 327 313 322 323 325 334 282 206 217 212 212 223 212
194 201 204 200 203 189 200 161 214 205 251 259 268 266 288 259 331 201 223 245 274 282 283 291 325 46 10 14 360 328 330 327 332 324 335 350 351 277 202 202 206 211 219
245 203 217 213 171 191 210 181 205 232 239 242 236 263 293 60 80 313 304 287 284 259 273 323 327 69 26 19 347 337 336 336 337 334 330 345 354 341 288 195 207 203 209
245 240 226 179 232 242 249 225 229 292 135 190 265 359 354 73 45 8 338 310 335 341 3 323 345 101 52 0 352 352 344 340 326 335 340 338 355 5 2 354 206 192 206
317 270 233 231 216 229 58 354 70 53 51 20 40 356 10 358 31 277 289 324 325 322 321 307 8 51 30 6 356 354 351 349 347 342 342 347 7 4 12 13 1 2 219
261 223 237 263 276 164 146 128 51 91 94 96 94 57 103 98 339 322 292 288 296 282 286 22 41 40 25 5 350 355 356 355 351 337 349 353 3 7 8 16 27 37 22
245 285 288 236 307 105 76 64 121 83 64 97 100 90 69 284 327 330 332 309 290 332 44 47 38 25 18 359 351 357 352 347 336 352 358 357 356 355 5 17 23 32 32
255 212 260 291 97 91 100 68 155 195 177 135 198 215 243 265 16 348 340 341 47 60 51 48 30 22 12 3 358 5 356 354 0 5 6 360 357 3 6 8 25 34 42
274 8 138 67 36 49 80 69 39 87 140 73 98 214 214 278 336 20 10 23 37 45 48 49 32 28 19 1 351 345 359 355 352 353 8 10 11 2 2 10 19 24 38
138 21 337 157 135 111 97 107 63 41 259 224 74 23 16 18 42 50 44 32 44 45 93 92 76 50 28 2 351 345 348 347 352 356 0 8 8 11 11 6 36 23 14
129 127 87 116 119 113 162 202 214 232 210 105 87 69 10 49 49 48 7 38 20 62 57 38 50 128 135 107 316 347 354 355 359 358 6 8 1 3 17 17 24 29 27
59 160 167 154 202 184 214 218 206 234 225 140 149 136 220 108 105 348 311 325 12 290 49 53 11 34 37 32 35 14 5 359 358 358 354 1 360 5 7 28 25 25 28
144 148 117 83 116 149 247 264 257 282 244 194 177 160 179 174 168 191 266 272 85 54 45 61 38 40 26 45 47 41 20 7 336 349 342 340 360 356 10 13 25 23 27
135 160 171 197 232 255 300 303 110 78 320 284 196 233 207 156 160 116 230 292 74 67 58 85 86 58 37 40 35 40 28 4 337 343 331 347 11 352 17 10 20 21 24
214 202 213 250 205 215 227 226 283 217 200 228 194 203 188 197 172 148 114 114 101 125 110 77 71 97 71 54 45 28 4 3 355 350 340 335 36 4 3 14 13 24 22
240 241 252 258 267 256 286 275 257 230 233 213 213 215 215 218 155 127 138 120 121 113 86 93 108 101 101 69 46 22 12 7 358 349 343 34 14 24 5 11 18 15 31